星链-32140 (STARLINK-32140)

导读 | 豆包AI

STARLINK-32140是美国SpaceX公司星链(Starlink)星座组网的卫星之一,于北京时间2024年10月15日,由猎鹰9号火箭从美国加利福尼亚州范登堡太空军基地发射升空,进入低地球轨道,该星属于Starlink Group 9-7任务组,具备直接到基站功能,用于扩充星链星座规模,为全球提供高速卫星互联网服务。

Basic Information
目录编号:
61511
目录名称:
STARLINK-32140
国际标识:
2024-183C
轨道中心:
EARTH
卫星名称:
星链-32140
卫星全名:
星链-32140 (STARLINK-32140)
卫星状态:
在轨 (已飞行516 天)
发射日期:
2024-10-15 UTC
国别 :
美国 (US)
星等 :
--
Orbit Information
数据来源 国际轨道数据 AOE轨道数据
星历时间 2026-03-15T04:17:36+0800
16小时前
查看轨道信息
2026-03-14T03:00:00+0800
1天前
查看轨道信息
半长轴 6853.392km 6853.335km
偏心率 0.000157 0.0001476
轨道倾角 53.162° 53.161°
近地点辐角 104.559° 73.382°
升交点赤经 118.374° 123.276°
平近点角 255.559° 238.016°
近地点 474.179km 474.186km
远地点 476.331km 476.21km
周期 94.106分钟 94.105分钟
每日圈数 15.301867 15.302059
Detailed Information
固有亮度:
5
最大亮度:
2.5
卫星平台:
Starlink V1.0
覆盖范围:
全球
运营商:
太空探索技术公司
运营商所在国:
美国
制造商(研发单位):
太空探索技术公司
制造商所在国:
美国
使用方式:
暂无
Satellite Introduction
Starlink 计划是 SpaceX 推出的全球卫星互联网项目,通过发射低轨道卫星,为全球尤其是偏远地区提供高速、低延迟的互联网服务。自 2019 年起,Starlink 已部署数千颗卫星,旨在缩小全球数字鸿沟,推动互联网普及。该项目还为军事、航空等行业提供通信支持,带来广泛经济效益。
2D Orbit Map
3D Orbit Map
Orbit Altitude Analysis Chart
Orbit Inclination Analysis Chart
Orbit Comprehensive Analysis Chart
View Comprehensive Chart